Location: *
(47.2969°N, 10.2930°E)
Time: 23:44:29
(UTC+00:00)

Resurs 01 Rocket - Pass Details

Date: 09 April 2020
Orbit: 635 x 643 km, 98.0° (Epoch: 23 May)

Event Time Altitude Azimuth Distance (km) Brightness Sun altitude
Exits shadow 19:17:42 18° 139° (SE) 1,562 3.1 -13.1°
Maximum altitude 19:20:45 49° 70° (ENE) 826 1.9 -13.6°
Drops below altitude 10° 19:25:01 10° 357° (N) 2,038 4.7 -14.2°
Sets 19:27:17 0° 352° (N) 2,953 5.6 -14.6°
